Temp
38 38 35 33 32 31 26 32 27 33 32 35 34 33 34 34 33 32 32 31 32 32 32 33 33 33 34 34 34 34 36 37 36 36 37 37 37 37 37 37 38 37 37 37
29 37 33 28 31 30 31 31 31 31 30 30 33 33 32 33 33 31 31 32 32 33 33 33 33 33 33 32 32 35 36 36 36 36 35 35 35 35 35 35 36 36 35 35
26 32 31 25 27 28 30 30 30 26 30 32 32 32 32 33 32 32 32 32 31 32 32 32 32 32 31 32 34 34 34 35 34 34 33 33 33 33 33 34 34 34 34 34
25 28 18 28 26 26 27 27 27 28 31 30 30 30 30 31 33 32 32 31 31 31 31 31 31 31 32 32 32 32 32 32 32 32 32 32 32 32 33 34 33 33 33 34
23 25 31 32 28 27 27 29 30 29 28 29 30 32 31 32 31 32 32 31 31 31 30 29 30 30 31 31 31 31 30 31 31 30 30 30 30 31 32 32 32 32 33 33
24 20 18 30 33 34 31 23 31 28 30 29 30 27 35 30 31 31 31 32 31 31 27 27 28 29 30 30 29 29 29 29 30 30 30 30 30 30 32 32 30 32 32 33
24 21 27 35 32 33 22 26 34 33 32 27 28 32 32 32 31 32 32 31 31 28 26 23 22 24 28 27 27 27 28 29 29 29 28 29 30 31 30 30 30 30 30 32
21 17 15 35 32 27 34 38 36 33 31 28 31 29 31 31 30 29 25 24 24 22 19 14 15 20 22 23 25 26 27 26 27 27 28 29 29 29 30 29 28 28 28 29
29 29 37 37 37 38 37 34 35 32 33 28 29 30 31 30 27 27 25 21 17 18 16 12 13 15 19 22 23 23 24 24 24 25 27 28 27 28 28 29 28 27 28 28
26 36 34 33 37 37 37 35 35 33 32 32 30 32 32 30 26 23 18 16 14 13 13 14 12 12 13 15 20 20 21 21 23 23 25 27 28 28 27 27 27 27 27 27
28 30 30 32 33 36 36 34 32 35 34 32 32 33 31 30 26 22 19 14 12 13 13 13 11 11 11 13 17 18 20 20 22 24 24 24 26 27 27 28 28 25 27 29
26 32 29 31 35 35 32 32 35 32 32 33 31 31 30 29 27 21 16 12 10 9 7 10 9 8 10 9 14 16 19 22 23 24 24 25 25 25 29 29 30 31 32 32
29 31 30 32 33 34 31 32 34 33 32 28 25 26 28 23 21 21 14 11 10 9 9 6 7 8 10 9 10 14 17 20 22 22 23 23 24 23 22 27 29 30 31 32
29 25 27 31 28 28 29 31 32 26 25 25 22 22 21 19 21 18 14 12 9 7 6 7 7 8 11 11 11 11 15 18 21 22 22 22 23 23 23 22 23 25 30 30
19 19 22 25 26 25 26 25 24 21 19 16 18 17 17 16 14 11 10 10 12 9 7 5 5 8 10 7 9 12 15 18 20 21 22 22 23 24 24 24 24 25 27 29
9 15 19 19 20 19 19 18 20 17 17 15 13 11 11 12 11 11 10 11 13 14 8 5 6 10 8 7 10 13 15 19 22 22 23 22 23 23 23 23 24 24 25 26
12 11 13 14 14 14 13 14 14 14 13 12 11 12 12 13 12 12 10 10 10 10 10 9 9 10 10 11 13 16 17 17 20 21 21 21 21 21 22 23 22 23 24 26
13 13 13 13 12 11 11 12 11 11 10 11 12 12 11 10 9 9 9 10 11 12 14 13 13 14 13 15 14 16 16 17 17 17 18 19 20 21 21 21 20 20 21 23
13 12 12 12 11 10 10 9 9 9 10 11 11 10 10 10 10 10 10 10 10 10 11 14 16 17 16 16 19 19 18 18 17 17 17 18 16 17 18 18 18 18 19 19
11 12 13 12 11 10 9 10 11 10 10 10 10 10 9 9 10 9 10 9 10 11 13 15 16 15 15 16 19 18 18 15 13 13 13 14 14 13 13 15 15 15 16 17
9 10 11 11 10 10 10 10 10 9 10 10 9 8 8 9 10 10 9 8 11 12 14 16 15 16 16 17 18 14 12 11 10 10 9 9 9 10 10 11 12 13 13 15
8 8 8 10 9 9 9 9 9 10 9 8 9 9 8 8 8 9 10 8 11 15 14 14 14 15 17 16 12 11 9 9 8 8 7 8 8 8 9 10 10 11 13 14
5 6 6 6 8 8 9 8 8 9 7 7 8 7 7 8 8 6 4 10 12 13 14 13 14 18 19 10 9 8 7 6 7 7 7 7 7 8 9 10 11 12 13 14
3 3 4 6 7 7 5 6 7 8 7 8 8 8 7 6 7 10 10 11 11 12 12 11 13 16 17 9 8 6 5 6 6 6 6 9 8 7 8 9 9 10 12 15
1 1 2 3 3 6 5 6 5 6 6 7 7 8 8 9 6 8 9 8 10 11 9 11 12 12 9 8 5 5 4 6 5 6 6 4 5 6 7 7 7 8 10 12
1 1 3 3 5 5 6 5 4 6 6 5 6 7 8 9 9 9 9 9 9 9 7 7 7 8 7 5 5 5 5 5 5 4 5 6 6 5 4 5 6 7 8 9
1 4 1 3 4 4 4 6 4 3 5 4 3 7 8 8 7 8 8 6 6 6 6 6 6 6 6 5 6 4 4 4 6 5 6 4 3 4 4 5 6 7 7 8
MSLP
1019.11 1019.28 1019.78 1020.17 1020.58 1020.87 1020.65 1019.46 1019.02 1016.79 1017.56 1018.42 1019.00 1019.53 1019.47 1019.47 1020.19 1020.69 1021.16 1021.87 1022.31 1022.58 1023.32 1023.55 1024.24 1024.60 1025.17 1025.80 1026.34 1026.79 1027.08 1027.19 1027.46 1027.79 1027.94 1027.98 1028.19 1028.32 1028.35 1028.25 1028.24 1028.30 1028.28 1028.22
1019.31 1019.04 1019.50 1019.86 1020.11 1020.09 1020.09 1019.75 1019.15 1018.83 1018.58 1019.49 1019.96 1020.10 1020.00 1019.87 1020.36 1020.82 1021.30 1021.77 1022.46 1023.05 1023.59 1023.99 1024.58 1025.18 1025.70 1026.37 1026.87 1027.17 1027.27 1027.42 1027.70 1027.83 1027.96 1028.10 1028.16 1028.36 1028.29 1028.27 1028.38 1028.31 1028.18 1028.21
1019.26 1019.39 1019.66 1019.51 1019.49 1019.77 1019.87 1019.87 1019.92 1019.86 1019.87 1020.16 1019.99 1020.22 1020.36 1020.25 1020.52 1020.90 1021.37 1021.99 1022.78 1023.45 1024.03 1024.82 1025.08 1025.82 1026.39 1026.93 1027.28 1027.45 1027.59 1027.67 1027.83 1027.97 1028.04 1028.17 1028.29 1028.30 1028.29 1028.26 1028.27 1028.18 1028.04 1028.07
1020.31 1020.08 1019.63 1019.29 1020.01 1020.32 1020.38 1020.22 1020.53 1020.73 1020.65 1020.86 1021.00 1021.08 1021.03 1020.97 1020.95 1021.44 1021.80 1022.44 1023.26 1023.97 1024.62 1025.25 1025.64 1026.28 1026.84 1027.22 1027.30 1027.36 1027.59 1027.71 1027.90 1028.06 1028.08 1028.18 1028.22 1028.12 1028.11 1028.22 1028.10 1027.95 1027.94 1027.79
1020.91 1020.01 1018.92 1019.08 1019.92 1020.26 1020.33 1020.26 1020.40 1020.57 1020.91 1021.19 1021.39 1021.29 1021.27 1021.54 1021.66 1021.89 1022.30 1022.93 1023.68 1024.48 1025.16 1025.78 1026.12 1026.62 1026.96 1027.30 1027.46 1027.40 1027.46 1027.64 1027.82 1028.01 1028.02 1028.08 1028.12 1028.05 1027.95 1027.84 1027.70 1027.68 1027.59 1027.52
1021.59 1020.70 1019.19 1018.84 1019.59 1020.27 1020.71 1020.16 1020.14 1020.73 1020.90 1021.15 1021.51 1021.21 1020.60 1021.64 1022.04 1022.55 1023.06 1023.53 1024.05 1024.74 1025.67 1026.39 1026.75 1026.93 1027.12 1027.27 1027.41 1027.31 1027.45 1027.73 1027.91 1027.86 1028.02 1027.90 1027.85 1027.77 1027.59 1027.59 1027.55 1027.46 1027.50 1027.31
1021.36 1020.74 1019.38 1019.05 1019.97 1020.60 1020.43 1020.05 1019.93 1020.29 1020.45 1021.00 1021.29 1020.93 1021.22 1021.86 1022.46 1022.95 1023.44 1024.03 1024.59 1025.41 1026.22 1027.04 1027.39 1027.43 1027.34 1027.40 1027.46 1027.65 1027.73 1027.63 1027.62 1027.78 1027.85 1027.61 1027.51 1027.56 1027.48 1027.40 1027.40 1027.40 1027.34 1026.93
1021.66 1020.97 1019.72 1019.44 1020.17 1020.25 1019.51 1019.22 1019.67 1019.92 1020.26 1020.63 1020.78 1021.20 1021.51 1022.06 1022.75 1023.53 1024.34 1025.10 1025.67 1026.34 1027.28 1027.99 1028.14 1027.80 1027.61 1027.55 1027.70 1027.87 1027.84 1027.71 1027.58 1027.43 1027.38 1027.23 1027.30 1027.26 1027.23 1027.27 1027.17 1027.05 1026.80 1026.40
1020.88 1019.05 1018.92 1019.45 1019.10 1019.30 1019.53 1019.67 1019.68 1019.75 1019.67 1020.22 1020.53 1020.97 1021.43 1022.09 1023.03 1023.86 1024.70 1025.76 1026.60 1027.05 1027.61 1027.98 1028.21 1028.30 1028.14 1028.06 1028.10 1027.97 1027.75 1027.52 1027.39 1027.33 1027.26 1027.21 1027.21 1027.16 1027.08 1026.95 1026.80 1026.54 1026.25 1025.89
1020.73 1018.73 1019.21 1019.44 1019.53 1019.58 1019.62 1019.58 1019.52 1019.62 1019.66 1019.87 1020.08 1020.54 1021.21 1022.14 1023.16 1024.15 1025.19 1025.94 1026.65 1027.35 1027.76 1028.18 1028.48 1028.58 1028.52 1028.41 1028.16 1028.06 1027.79 1027.57 1027.42 1027.35 1027.21 1027.10 1027.10 1026.95 1026.75 1026.47 1026.27 1026.09 1025.87 1025.54
1020.33 1019.80 1019.60 1019.46 1019.62 1019.64 1019.54 1019.60 1019.54 1019.31 1019.35 1019.64 1020.06 1020.54 1021.18 1022.08 1023.16 1024.34 1025.43 1026.45 1027.22 1027.66 1027.97 1028.25 1028.68 1028.82 1028.77 1028.64 1028.43 1028.04 1027.76 1027.65 1027.41 1027.22 1027.17 1026.97 1026.76 1026.51 1026.33 1026.15 1026.04 1025.93 1025.55 1025.19
1020.42 1020.45 1020.48 1020.17 1020.16 1020.15 1019.95 1019.57 1019.28 1019.24 1019.40 1019.77 1020.33 1020.73 1021.29 1021.99 1023.12 1024.45 1025.63 1026.74 1027.59 1028.10 1028.47 1028.71 1028.72 1028.64 1028.62 1028.43 1028.40 1028.22 1027.78 1027.44 1027.22 1026.97 1026.82 1026.64 1026.38 1026.05 1025.75 1025.62 1025.34 1024.95 1024.55 1024.25
1022.07 1021.83 1021.50 1020.90 1020.67 1020.39 1020.31 1019.72 1019.27 1019.31 1019.50 1020.21 1021.08 1021.38 1021.86 1022.78 1023.56 1024.54 1026.01 1026.99 1027.62 1027.98 1028.36 1028.58 1028.50 1028.43 1028.52 1028.41 1028.11 1027.92 1027.85 1027.61 1027.24 1026.89 1026.60 1026.36 1026.12 1025.84 1025.34 1024.78 1024.60 1024.35 1024.01 1023.69
1023.62 1023.29 1022.09 1021.46 1021.44 1021.30 1020.88 1020.31 1019.96 1020.18 1020.37 1020.93 1021.63 1022.30 1022.75 1023.41 1024.31 1025.26 1026.14 1026.84 1027.39 1027.87 1028.20 1028.27 1028.27 1028.08 1027.98 1028.10 1027.98 1027.78 1027.52 1027.17 1026.76 1026.62 1026.48 1026.15 1025.84 1025.54 1025.20 1024.77 1024.19 1023.73 1023.40 1023.19
1024.97 1024.84 1023.96 1023.28 1022.63 1022.11 1021.73 1021.44 1021.38 1021.89 1022.31 1022.57 1023.10 1023.48 1023.72 1024.22 1025.16 1026.32 1027.01 1027.20 1027.42 1027.72 1027.83 1027.93 1027.94 1027.77 1027.80 1027.89 1027.95 1027.75 1027.34 1026.82 1026.51 1026.18 1025.93 1025.71 1025.34 1024.91 1024.55 1024.15 1023.70 1023.26 1022.89 1022.60
1026.55 1025.50 1024.85 1024.16 1023.48 1023.51 1023.16 1022.81 1022.77 1023.24 1023.50 1024.06 1024.54 1024.96 1025.09 1025.37 1025.86 1026.48 1027.17 1027.60 1027.62 1027.43 1027.63 1027.72 1027.60 1027.45 1027.56 1027.65 1027.66 1027.45 1027.19 1026.74 1026.05 1025.51 1025.15 1024.98 1024.68 1024.38 1024.01 1023.64 1023.16 1022.79 1022.43 1022.07
1027.42 1026.45 1026.06 1025.50 1025.31 1025.29 1025.23 1025.09 1024.86 1024.83 1025.01 1025.30 1025.68 1025.84 1025.85 1026.01 1026.34 1026.82 1027.23 1027.44 1027.61 1027.61 1027.38 1027.32 1027.26 1027.14 1027.05 1027.08 1027.00 1026.76 1026.54 1026.31 1026.01 1025.34 1024.93 1024.65 1024.28 1023.96 1023.66 1023.25 1022.80 1022.39 1022.02 1021.75
1028.83 1028.33 1027.79 1027.32 1027.02 1026.92 1026.73 1026.63 1026.56 1026.53 1026.57 1026.62 1026.61 1026.59 1026.64 1026.81 1027.05 1027.24 1027.39 1027.31 1027.28 1027.10 1026.85 1026.93 1026.87 1026.56 1026.56 1026.55 1026.42 1026.25 1026.05 1025.69 1025.49 1025.21 1024.76 1024.35 1024.03 1023.74 1023.36 1022.91 1022.54 1022.15 1021.58 1021.22
1029.53 1029.03 1028.63 1028.34 1028.22 1028.08 1027.97 1027.85 1027.77 1027.77 1027.60 1027.40 1027.22 1027.19 1027.29 1027.45 1027.51 1027.49 1027.38 1027.15 1026.96 1026.84 1026.82 1026.79 1026.49 1026.15 1026.15 1026.01 1025.64 1025.37 1025.09 1024.97 1024.86 1024.71 1024.51 1024.09 1023.87 1023.61 1023.19 1022.94 1022.50 1022.01 1021.36 1020.69
1030.21 1029.76 1029.39 1029.12 1028.94 1028.86 1028.72 1028.63 1028.42 1028.35 1028.30 1028.02 1027.80 1027.67 1027.62 1027.66 1027.57 1027.49 1027.35 1027.14 1027.08 1027.08 1026.80 1026.37 1026.04 1026.03 1025.86 1025.59 1025.20 1024.83 1024.41 1024.73 1024.91 1024.86 1024.64 1024.22 1023.67 1023.38 1023.06 1022.50 1021.97 1021.51 1021.03 1020.34
1030.91 1030.56 1030.15 1029.83 1029.61 1029.54 1029.42 1029.23 1028.93 1028.70 1028.55 1028.48 1028.20 1028.05 1027.98 1027.85 1027.70 1027.55 1027.28 1027.09 1027.05 1026.98 1026.46 1026.13 1025.96 1025.56 1025.41 1024.95 1024.65 1024.86 1025.00 1024.97 1024.92 1024.75 1024.48 1024.08 1023.58 1023.09 1022.66 1022.18 1021.60 1020.97 1020.39 1019.77
1031.58 1031.25 1030.87 1030.41 1030.22 1029.94 1029.85 1029.67 1029.48 1029.26 1029.12 1028.81 1028.57 1028.44 1028.29 1027.96 1027.85 1027.69 1027.53 1027.43 1027.15 1026.65 1026.39 1025.97 1025.73 1025.53 1024.77 1024.33 1024.83 1024.99 1025.00 1024.87 1024.66 1024.45 1024.11 1023.69 1023.17 1022.62 1022.12 1021.59 1021.02 1020.38 1019.72 1019.08
1032.31 1031.94 1031.48 1031.04 1030.51 1030.15 1030.07 1029.96 1029.82 1029.49 1029.37 1029.11 1028.80 1028.79 1028.58 1028.29 1028.01 1027.78 1027.54 1027.50 1027.03 1026.76 1026.03 1025.86 1025.65 1024.82 1024.32 1024.76 1024.94 1024.93 1024.83 1024.70 1024.42 1024.09 1023.75 1023.34 1022.79 1022.25 1021.57 1020.90 1020.22 1019.61 1018.88 1018.11
1032.72 1032.39 1031.91 1031.34 1030.88 1030.47 1030.24 1030.11 1030.00 1029.66 1029.50 1029.27 1029.04 1028.96 1028.79 1028.33 1027.99 1027.82 1027.71 1027.40 1027.07 1026.54 1026.09 1026.09 1025.47 1024.80 1024.30 1024.83 1024.84 1024.82 1024.68 1024.36 1024.04 1023.72 1023.30 1022.66 1022.10 1021.79 1021.18 1020.42 1019.91 1019.24 1018.39 1017.42
1032.90 1032.60 1032.12 1031.55 1030.98 1030.43 1030.34 1030.17 1029.95 1029.56 1029.37 1029.13 1028.98 1028.82 1028.63 1028.29 1028.08 1027.56 1027.44 1027.27 1026.92 1026.39 1026.22 1025.81 1025.38 1025.11 1025.08 1025.00 1024.90 1024.65 1024.34 1023.91 1023.64 1023.10 1022.60 1022.38 1021.77 1021.20 1020.63 1020.04 1019.35 1018.63 1017.84 1016.95
1032.84 1032.51 1032.02 1031.64 1031.08 1030.67 1030.37 1030.17 1029.76 1029.45 1029.19 1028.89 1028.79 1028.49 1028.20 1027.96 1027.70 1027.24 1027.01 1026.74 1026.39 1026.19 1025.93 1025.68 1025.44 1025.10 1024.93 1024.84 1024.49 1024.12 1023.80 1023.49 1023.07 1022.76 1022.23 1021.63 1021.09 1020.66 1020.05 1019.39 1018.67 1017.95 1017.25 1016.46
1032.64 1032.15 1031.86 1031.40 1031.13 1030.81 1030.53 1029.83 1029.65 1029.49 1029.25 1028.98 1028.51 1028.04 1027.56 1027.39 1027.18 1026.74 1026.45 1026.28 1026.08 1025.84 1025.55 1025.23 1024.96 1024.78 1024.52 1024.31 1023.89 1023.73 1023.36 1022.98 1022.53 1022.01 1021.42 1021.12 1020.68 1020.09 1019.41 1018.75 1018.03 1017.30 1016.54 1015.74
Wind_Speed
9 9 4 6 9 8 12 13 12 15 17 12 7 4 8 9 9 10 10 8 7 8 9 9 9 9 9 8 8 7 6 5 5 4 3 3 3 1 2 2 2 3 4 5
7 13 10 9 11 12 13 13 15 18 19 4 8 8 7 4 8 10 9 9 9 9 9 10 10 9 8 8 6 5 5 5 4 4 3 2 1 1 1 2 3 4 4 5
6 2 10 11 3 3 3 5 3 7 5 9 9 6 5 3 7 8 9 10 10 9 9 8 9 8 7 6 5 4 4 4 3 3 2 1 1 2 2 3 4 4 5 5
5 6 6 2 3 2 4 4 4 6 8 5 4 1 3 4 3 7 9 9 9 8 8 8 8 7 7 6 4 4 4 3 2 1 1 1 2 3 3 3 4 4 5 5
4 6 12 9 5 5 3 3 6 4 3 4 3 3 3 3 1 4 7 8 8 8 8 7 8 7 6 5 4 4 3 2 1 1 2 3 4 5 4 3 3 4 5 6
3 6 6 4 4 4 3 6 6 5 6 7 5 6 3 5 6 7 7 7 9 8 7 7 5 4 5 4 3 2 1 1 2 2 4 4 4 4 3 3 4 4 6 6
9 7 8 1 9 5 4 2 3 7 9 6 8 4 4 9 8 6 6 7 8 8 7 5 3 3 3 3 1 0 1 3 3 3 4 4 4 4 4 4 5 6 7 7
3 5 8 8 6 6 4 7 8 5 8 8 8 5 9 9 8 7 7 5 4 6 5 3 2 1 2 1 1 1 3 3 3 3 3 3 4 4 5 5 6 7 7 7
8 7 1 7 8 3 4 8 9 6 8 9 9 10 12 10 8 7 8 5 4 5 5 2 1 0 3 3 1 3 4 4 4 4 4 4 5 5 5 6 6 6 5 6
1 9 7 6 9 10 9 11 10 10 9 11 10 10 10 8 8 7 6 6 4 4 4 4 2 0 2 3 4 4 4 4 3 3 4 4 4 5 5 5 5 5 6 6
9 11 10 5 4 8 10 9 11 12 11 12 9 8 9 8 8 7 6 4 3 3 3 2 2 3 2 3 4 4 4 4 4 3 4 5 5 5 5 6 7 6 7 8
8 5 4 9 9 10 14 16 15 12 10 7 8 8 8 7 7 7 5 4 2 2 2 3 2 2 2 2 3 4 4 3 3 3 3 4 5 6 9 12 15 16 18 14
7 8 9 15 15 13 11 15 14 12 9 7 3 4 6 4 6 9 7 6 5 5 4 3 3 3 2 3 4 4 4 4 4 4 4 5 6 6 7 8 12 13 15 16
12 10 9 5 8 15 13 13 11 1 3 2 6 5 6 7 7 7 6 4 4 4 4 4 3 3 2 3 4 4 4 7 4 4 5 6 6 7 7 7 8 8 10 12
13 12 12 12 12 10 6 6 5 6 6 7 6 3 5 7 6 3 2 3 4 4 3 2 2 4 1 2 3 4 4 4 4 5 6 8 7 7 8 8 9 9 8 10
16 11 8 7 9 9 8 9 6 6 6 5 6 5 5 6 6 5 2 2 4 2 1 2 3 3 1 3 4 4 5 11 10 7 6 7 7 8 8 9 9 9 9 9
6 9 11 12 11 10 9 7 7 7 7 7 5 3 3 3 4 4 3 0 3 4 3 3 4 4 3 4 4 4 4 6 11 9 7 7 7 8 8 9 9 9 10 10
7 7 8 8 8 8 9 10 9 9 8 7 5 4 4 5 4 3 2 2 3 3 1 2 5 6 4 3 4 5 6 6 6 6 6 7 8 8 9 9 9 10 11 12
9 8 9 10 9 8 7 7 7 6 6 6 5 5 4 3 3 2 3 3 3 3 3 6 10 4 5 8 9 7 7 6 6 6 5 8 7 9 10 11 11 12 12 11
10 10 9 7 8 8 7 6 6 6 6 5 5 5 4 4 4 4 4 4 3 4 7 8 6 5 6 9 12 7 3 0 3 6 6 8 9 9 10 13 12 11 11 11
10 10 9 8 6 6 6 6 7 6 5 6 5 5 5 5 5 5 4 4 5 7 8 9 7 5 7 11 7 2 2 4 5 6 7 8 8 9 9 10 10 10 10 10
8 8 9 8 7 5 5 6 6 5 5 6 6 5 6 6 6 5 5 5 5 13 8 7 4 11 12 3 3 4 5 6 6 6 6 7 8 9 10 10 10 10 10 10
7 8 8 8 8 6 4 5 6 4 5 6 6 7 6 6 5 5 6 6 6 11 8 5 12 16 17 5 4 5 6 7 7 7 8 8 9 9 9 10 10 10 10 10
7 8 8 8 8 5 5 6 6 5 4 5 5 6 7 5 6 5 5 9 13 13 9 9 12 17 16 6 7 7 7 7 7 8 9 13 8 8 9 9 10 10 11 13
6 7 7 8 7 5 6 7 7 5 5 5 6 7 7 6 6 7 6 7 12 11 8 12 15 14 7 7 8 8 8 8 8 8 8 8 8 8 9 10 10 10 10 10
7 6 6 7 6 6 6 6 6 5 5 6 7 7 7 6 6 8 8 11 9 11 8 7 6 7 7 7 8 9 9 9 9 8 10 9 8 9 9 10 10 10 10 10
6 9 5 5 4 4 5 6 5 6 7 6 9 9 7 7 8 9 10 7 7 7 7 7 7 7 7 8 8 8 8 8 11 9 8 8 8 9 9 10 10 10 10 11
Wind_Direction
285 310 278 252 256 214 211 246 249 283 287 307 328 297 253 227 183 174 171 157 152 133 131 116 116 108 102 100 101 108 120 118 113 123 121 110 122 67 15 356 336 316 308 303
278 272 266 278 263 239 244 253 265 273 281 53 324 312 309 235 193 192 179 162 154 137 130 129 123 118 111 111 114 134 138 133 139 145 133 115 81 352 312 307 295 299 294 297
278 13 314 278 242 209 207 218 268 271 323 323 321 331 326 248 200 189 167 149 144 135 130 130 119 119 118 123 134 137 143 141 140 135 145 142 242 272 275 286 296 290 295 289
282 304 244 57 181 211 245 259 218 276 281 296 294 7 17 15 147 152 143 143 141 131 126 128 119 125 136 144 140 138 145 139 139 153 249 264 268 269 269 256 264 279 281 289
260 248 293 244 193 192 186 261 194 237 220 228 216 280 251 353 22 137 139 130 135 139 140 137 138 142 151 155 160 159 150 151 142 228 268 263 248 244 246 254 283 294 296 287
222 260 266 53 145 132 164 268 186 200 233 221 206 255 257 163 138 126 126 141 147 142 131 139 136 150 169 155 164 133 78 212 243 263 251 253 267 278 283 279 291 294 284 281
246 262 279 287 126 151 244 24 191 229 236 194 219 253 105 149 150 136 123 121 120 134 143 132 133 191 168 146 157 153 266 296 272 258 271 274 282 283 285 287 285 280 274 279
178 237 264 149 133 222 8 305 289 250 234 228 230 176 170 168 150 137 131 124 117 132 139 158 212 199 149 169 103 284 272 268 279 299 300 306 296 290 285 274 269 273 280 285
215 240 82 195 272 293 294 276 271 251 241 215 205 195 183 179 167 171 162 162 151 153 153 122 118 240 197 141 287 301 298 308 316 318 305 296 283 274 271 260 264 274 280 285
244 262 268 279 285 276 275 270 274 259 251 204 195 188 190 179 173 171 173 180 152 148 166 183 190 240 272 306 315 298 292 301 299 282 283 266 269 266 264 266 271 279 279 280
260 281 291 275 254 297 298 286 274 268 235 208 201 198 183 180 170 174 173 153 156 178 181 203 195 210 208 253 264 261 263 262 261 265 274 282 273 278 276 270 263 267 268 272
277 327 270 293 311 302 301 289 280 249 213 205 201 191 177 171 164 161 150 123 151 208 256 258 261 294 279 201 239 254 254 241 250 274 276 279 287 289 273 269 272 272 275 273
299 334 292 287 293 299 312 310 289 242 217 183 178 166 162 142 149 147 139 159 186 200 210 235 253 273 269 215 189 207 252 291 291 285 285 289 294 293 294 298 289 274 273 277
315 323 293 311 323 324 316 319 313 163 113 114 141 132 133 137 148 153 162 163 150 182 217 224 228 260 232 211 201 205 227 245 258 278 287 284 285 287 285 284 288 289 289 283
353 329 290 301 311 331 341 353 21 34 34 57 42 95 125 119 107 89 91 178 195 208 212 222 274 281 176 208 253 256 244 243 253 264 270 269 269 268 270 278 279 279 286 281
311 305 338 358 2 5 6 11 43 50 68 76 77 61 59 82 105 122 136 277 259 236 276 269 268 248 231 230 249 247 248 267 272 274 278 274 266 272 273 278 279 279 283 286
334 8 356 12 15 22 22 20 40 63 74 79 85 95 88 105 117 120 107 11 295 293 294 274 272 284 263 226 223 270 278 278 281 285 286 276 271 274 275 276 279 278 281 284
22 24 24 29 22 19 24 29 33 38 38 35 40 42 48 48 55 48 7 306 289 304 306 308 283 266 240 243 250 261 260 267 273 274 278 279 284 286 283 284 286 285 285 281
19 22 30 30 19 34 33 37 38 35 28 24 35 45 59 60 20 350 329 319 320 325 356 321 299 357 322 305 298 283 273 272 278 279 281 289 301 285 282 283 286 284 284 283
16 17 23 38 42 37 34 26 23 24 15 19 24 25 20 24 9 356 333 327 341 331 298 301 311 312 290 285 295 278 300 326 300 292 288 283 288 291 285 280 280 280 280 279
15 6 9 18 21 25 25 12 4 6 20 13 6 6 1 344 349 339 330 326 344 319 304 326 313 312 305 288 303 72 339 311 299 289 286 284 287 285 283 284 282 279 276 273
3 357 352 354 356 354 5 360 357 349 3 355 353 358 347 339 338 330 331 322 323 321 321 306 331 300 284 3 45 351 324 309 298 291 290 291 289 289 286 285 283 281 279 276
354 347 341 343 340 337 348 359 351 340 354 346 349 355 339 328 316 319 319 328 326 312 315 340 304 308 310 46 352 332 319 309 297 297 297 291 285 280 289 291 283 283 282 279
343 340 328 332 329 330 335 346 343 316 325 323 336 339 327 322 304 289 309 313 321 312 331 316 301 310 327 348 332 320 307 301 295 300 292 290 291 294 281 292 291 289 293 297
328 320 314 324 316 308 318 324 316 303 295 307 319 318 314 304 289 296 288 299 307 315 308 312 306 326 324 315 308 300 296 292 293 284 310 299 285 285 291 287 282 282 281 285
321 316 306 306 311 313 312 314 309 316 299 320 315 307 309 306 295 304 294 290 290 296 303 300 288 290 319 304 297 303 298 296 296 299 293 290 295 294 287 285 285 285 284 283
311 323 301 309 313 320 309 305 340 320 317 315 302 298 303 309 303 303 307 305 288 282 286 285 284 289 296 304 301 301 293 293 290 287 300 304 291 285 286 285 285 285 283 280